This is the latest recevied weather packets stored in our database for station/object N2OCK. If no packets are shown the sender has not sent any weather packets the latest 10 day(s).
| Time | Temp. | Humidity | Pressure | Rain* | Wind** | Luminosity | Snow |
|---|---|---|---|---|---|---|---|
| 1777898159 | 14.44° C | 53% | 1014.2 hPa | 0 mm | - | 322 W/m² | - |
| 1777897856 | 14.44° C | 52% | 1014.2 hPa | 0 mm | - | 307 W/m² | - |
| 1777897552 | 13.89° C | 54% | 1014.2 hPa | 0 mm | - | 293 W/m² | - |
| 1777897247 | 13.89° C | 55% | 1014.2 hPa | 0 mm | - | 279 W/m² | - |
| 1777896943 | 13.33° C | 56% | 1014.1 hPa | 0 mm | - | 262 W/m² | - |
| 1777896641 | 13.33° C | 56% | 1014.3 hPa | 0 mm | - | 252 W/m² | - |
| 1777896337 | 12.78° C | 58% | 1014.2 hPa | 0 mm | - | 235 W/m² | - |
| 1777896036 | 12.78° C | 59% | 1014.2 hPa | 0 mm | - | 222 W/m² | - |
| 1777895733 | 12.78° C | 58% | 1014.1 hPa | 0 mm | - | 57 W/m² | - |
| 1777895430 | 12.78° C | 59% | 1014.1 hPa | 0 mm | - | 193 W/m² | - |
| 1777895128 | 12.22° C | 58% | 1014.2 hPa | 0 mm | - | 168 W/m² | - |
| 1777894825 | 12.22° C | 57% | 1014.2 hPa | 0 mm | - | 165 W/m² | - |
| 1777894522 | 12.22° C | 58% | 1014.2 hPa | 0 mm | - | 52 W/m² | - |
| 1777894219 | 11.67° C | 59% | 1014.1 hPa | 0 mm | - | 52 W/m² | - |
| 1777893916 | 11.67° C | 59% | 1014 hPa | 0 mm | - | 50 W/m² | - |
| 1777893612 | 11.67° C | 60% | 1014.2 hPa | 0 mm | - | 49 W/m² | - |
| 1777893309 | 11.67° C | 59% | 1014.2 hPa | 0 mm | - | 48 W/m² | - |
| 1777893004 | 11.11° C | 60% | 1014.1 hPa | 0 mm | - | 46 W/m² | - |
| 1777892702 | 11.11° C | 61% | 1014.2 hPa | 0 mm | - | 45 W/m² | - |
| 1777892397 | 10.56° C | 60% | 1014.2 hPa | 0 mm | - | 74 W/m² | - |
| 1777892094 | 10.56° C | 60% | 1014.2 hPa | 0 mm | - | 41 W/m² | - |
| 1777891791 | 10.56° C | 60% | 1014.3 hPa | 0 mm | - | 38 W/m² | - |
| 1777891488 | 10.56° C | 60% | 1014.1 hPa | 0 mm | - | 50 W/m² | - |
| 1777891184 | 10.56° C | 60% | 1014.2 hPa | 0 mm | - | 44 W/m² | - |
| 1777890878 | 10° C | 60% | 1014.1 hPa | 0 mm | - | 38 W/m² | - |
* Rain latest hour (hover to see other rain measurements)
** Current wind speed in m/s (hover to see current wind gust speed)